Date String (YYYY-MM-DD hh:mm:ss) UTC,Instrument flags,absolute air pressure of the measurement (hPa),sample flow rate (lpm),inlet stack bypass flow (lpm),air temperature of the measurement (°C),ambient temperature measured by the external sensor (°C),aerosol sample conditioner tube jacket temperature (°C),OPC LED temperature (°C),internal box temperature (°C),relative humidity of the measurement (%),span deviation,mass concentration of particles derived from Lorenz-Mie calculation of OPC scattering (μg/m³),mass concentration of particles derived from Lorenz-Mie calculation of OPC scattering (μg/m³),mass concentration of particles derived from Lorenz-Mie calculation of OPC scattering (μg/m³)
DateTimeUTC,F1_M11,P_M11,Q1_M11,Q2_M11,T1_M11,T2_M11,T3_M11,T4_M11,T5_M11,U1_M11,ZSPAN_M11,X0_M11,X2_M11,X1_M11
2023-06-30 08:00:00,SystemResetWarning,0835.2,4.99,000.00,029.9,028.3,000.0,038.6,031.4,27.6,0000.0,0006.28,0002.45,0001.90
2023-06-30 08:01:00,SystemResetWarning,0835.1,5.00,000.00,029.9,028.4,000.0,038.6,031.4,27.5,0000.0,0005.63,0002.47,0001.90
2023-06-30 08:02:00,SystemResetWarning,0835.1,5.00,000.00,029.9,028.4,000.0,038.6,031.4,27.6,0000.0,0005.61,0002.46,0001.89
2023-06-30 08:03:00,SystemResetWarning,0835.1,5.00,000.00,029.9,028.5,000.0,038.6,031.5,27.5,0000.0,0005.43,0002.43,0001.88
2023-06-30 08:04:00,SystemResetWarning,0835.2,5.00,000.00,030.0,028.6,000.0,038.6,031.5,27.5,0000.0,0005.50,0002.48,0001.89
2023-06-30 08:05:00,SystemResetWarning,0835.2,5.00,000.00,030.0,028.6,000.0,038.6,031.5,27.5,0000.0,0005.83,0002.54,0001.88
2023-06-30 08:06:00,SystemResetWarning,0835.3,5.01,000.00,030.0,028.7,000.0,038.6,031.5,27.5,0000.0,0005.82,0002.54,0001.88
2023-06-30 08:07:00,SystemResetWarning,0835.3,5.01,000.00,030.0,028.7,000.0,038.6,031.5,27.5,0000.0,0004.86,0002.54,0001.87
2023-06-30 08:08:00,SystemResetWarning,0835.3,5.01,000.00,030.0,028.7,000.0,038.6,031.6,27.4,0000.0,0004.41,0002.50,0001.86
2023-06-30 08:09:00,SystemResetWarning,0835.2,5.00,000.00,030.0,028.8,000.0,038.6,031.6,27.3,0000.0,0004.07,0002.48,0001.87
2023-06-30 08:10:00,SystemResetWarning,0835.3,5.00,000.00,030.1,028.8,000.0,038.6,031.6,27.3,0000.0,0004.47,0002.45,0001.86
2023-06-30 08:11:00,SystemResetWarning,0835.2,5.00,000.00,030.1,028.8,000.0,038.6,031.6,27.2,0000.0,0005.27,0002.40,0001.85
2023-06-30 08:12:00,SystemResetWarning,0835.3,5.00,000.00,030.1,028.8,000.0,038.6,031.6,27.2,0000.0,0005.08,0002.32,0001.82
2023-06-30 08:13:00,SystemResetWarning,0835.3,5.00,000.00,030.1,028.9,000.0,038.6,031.7,27.1,0000.0,0004.92,0002.26,0001.81
2023-06-30 08:14:00,SystemResetWarning,0835.2,5.00,000.00,030.1,028.9,000.0,038.6,031.7,27.0,0000.0,0004.92,0002.26,0001.81
2023-06-30 08:15:00,SystemResetWarning,0835.2,4.99,000.00,030.1,028.4,000.0,038.6,031.7,27.2,0000.0,0004.86,0002.22,0001.81
2023-06-30 08:16:00,SystemResetWarning,0835.3,5.00,000.00,030.1,026.3,000.0,038.5,031.4,27.3,0000.0,0004.53,0002.17,0001.81
2023-06-30 08:17:00,SystemResetWarning,0835.2,5.00,000.00,030.0,025.2,000.0,038.4,031.1,27.4,0000.0,0004.42,0002.18,0001.82
2023-06-30 08:18:00,SystemResetWarning,0835.3,5.01,000.00,029.8,025.3,000.0,038.4,030.8,27.4,0000.0,0004.56,0002.15,0001.81
2023-06-30 08:19:00,SystemResetWarning,0835.3,5.01,000.00,029.7,025.6,000.0,038.4,030.7,27.8,0000.0,0005.55,0002.16,0001.81
2023-06-30 08:20:00,SystemResetWarning,0835.3,4.98,000.00,029.6,026.1,000.0,038.4,030.8,27.9,0000.0,0005.78,0002.23,0001.82
2023-06-30 08:21:00,SystemResetWarning,0835.2,5.01,000.00,029.6,026.5,000.0,038.4,030.9,28.1,0000.0,0005.30,0002.24,0001.82
2023-06-30 08:22:00,SystemResetWarning,0835.3,5.01,000.00,029.6,026.9,000.0,038.4,031.0,28.2,0000.0,0004.41,0002.23,0001.83
2023-06-30 08:23:00,SystemResetWarning,0835.3,5.00,000.00,029.6,027.2,000.0,038.3,031.0,28.4,0000.0,0004.44,0002.26,0001.85
2023-06-30 08:24:00,SystemResetWarning,0835.3,5.00,000.00,029.6,027.4,000.0,038.3,031.0,28.4,0000.0,0004.59,0002.30,0001.86
2023-06-30 08:25:00,SystemResetWarning,0835.3,5.00,000.00,029.6,027.6,000.0,038.3,031.1,28.4,0000.0,0004.64,0002.30,0001.86
2023-06-30 08:26:00,SystemResetWarning,0835.3,5.00,000.00,029.6,027.8,000.0,038.3,031.1,28.5,0000.0,0004.57,0002.29,0001.86
2023-06-30 08:27:00,SystemResetWarning,0835.3,5.00,000.00,029.6,027.9,000.0,038.3,031.1,28.5,0000.0,0004.48,0002.28,0001.86
2023-06-30 08:28:00,SystemResetWarning,0835.2,5.00,000.00,029.6,028.0,000.0,038.3,031.2,28.5,0000.0,0004.48,0002.28,0001.86
2023-06-30 08:29:00,SystemResetWarning,0835.2,5.00,000.00,029.7,028.1,000.0,038.3,031.2,28.4,0000.0,0004.46,0002.31,0001.87
2023-06-30 08:30:00,SystemResetWarning,0835.2,5.00,000.00,029.7,028.2,000.0,038.3,031.2,28.5,0000.0,0004.45,0002.36,0001.88
2023-06-30 08:31:00,SystemResetWarning,0835.2,5.00,000.00,029.7,028.3,000.0,038.3,031.3,28.3,0000.0,0004.37,0002.34,0001.89
2023-06-30 08:32:00,SystemResetWarning,0835.2,5.00,000.00,029.7,028.3,000.0,038.3,031.3,28.1,0000.0,0004.46,0002.39,0001.90
2023-06-30 08:33:00,SystemResetWarning,0835.2,4.99,000.00,029.7,028.4,000.0,038.3,031.3,28.0,0000.0,0004.55,0002.43,0001.91
2023-06-30 08:34:00,SystemResetWarning,0835.2,5.00,000.00,029.8,028.4,000.0,038.3,031.3,27.8,0000.0,0004.59,0002.45,0001.91
2023-06-30 08:35:00,SystemResetWarning,0835.2,5.00,000.00,029.8,028.5,000.0,038.3,031.3,27.6,0000.0,0004.50,0002.42,0001.93
2023-06-30 08:36:00,SystemResetWarning,0835.2,5.00,000.00,029.8,028.5,000.0,038.3,031.4,27.5,0000.0,0004.44,0002.44,0001.94
2023-06-30 08:37:00,SystemResetWarning,0835.2,5.00,000.00,029.8,028.5,000.0,038.4,031.4,27.5,0000.0,0004.62,0002.49,0001.94
2023-06-30 08:38:00,SystemResetWarning,0835.3,5.00,000.00,029.8,028.5,000.0,038.4,031.4,27.5,0000.0,0004.61,0002.50,0001.94
2023-06-30 08:39:00,SystemResetWarning,0835.2,5.00,000.00,029.8,028.6,000.0,038.4,031.4,27.3,0000.0,0004.72,0002.53,0001.95
2023-06-30 08:40:00,SystemResetWarning,0835.3,5.00,000.00,029.8,028.6,000.0,038.4,031.4,27.3,0000.0,0004.75,0002.54,0001.96
2023-06-30 08:41:00,SystemResetWarning,0835.3,5.00,000.00,029.9,028.6,000.0,038.4,031.4,27.4,0000.0,0004.26,0002.52,0001.96
2023-06-30 08:42:00,SystemResetWarning,0835.3,4.99,000.00,029.9,028.6,000.0,038.4,031.4,27.4,0000.0,0003.64,0002.46,0001.94
2023-06-30 08:43:00,SystemResetWarning,0835.3,4.99,000.00,029.9,028.6,000.0,038.4,031.4,27.4,0000.0,0003.69,0002.45,0001.94
2023-06-30 08:44:00,SystemResetWarning,0835.3,5.00,000.00,029.9,028.6,000.0,038.4,031.5,27.4,0000.0,0003.80,0002.45,0001.94
2023-06-30 08:45:00,SystemResetWarning,0835.3,5.00,000.00,029.9,028.6,000.0,038.5,031.4,27.4,0000.0,0003.78,0002.44,0001.92
2023-06-30 08:46:00,SystemResetWarning,0835.2,5.00,000.00,029.9,028.6,000.0,038.5,031.5,27.4,0000.0,0003.91,0002.48,0001.92
2023-06-30 08:47:00,SystemResetWarning,0835.2,5.00,000.00,029.9,028.6,000.0,038.5,031.5,27.3,0000.0,0003.92,0002.49,0001.92
2023-06-30 08:48:00,SystemResetWarning,0835.1,5.00,000.00,029.9,028.6,000.0,038.5,031.5,27.2,0000.0,0003.76,0002.43,0001.91
2023-06-30 08:49:00,SystemResetWarning,0835.1,5.00,000.00,030.0,028.6,000.0,038.5,031.5,27.3,0000.0,0003.87,0002.48,0001.90
2023-06-30 08:50:00,SystemResetWarning,0835.1,5.00,000.00,030.0,028.7,000.0,038.5,031.5,27.3,0000.0,0003.75,0002.44,0001.89
2023-06-30 08:51:00,SystemResetWarning,0835.1,4.99,000.00,030.0,028.7,000.0,038.5,031.5,27.3,0000.0,0003.82,0002.43,0001.90
2023-06-30 08:52:00,SystemResetWarning,0835.0,5.00,000.00,030.0,028.7,000.0,038.5,031.5,27.2,0000.0,0004.79,0002.43,0001.89
2023-06-30 08:53:00,SystemResetWarning,0835.0,5.00,000.00,030.0,028.7,000.0,038.6,031.5,27.2,0000.0,0004.91,0002.45,0001.89
2023-06-30 08:54:00,SystemResetWarning,0835.0,4.99,000.00,030.0,028.7,000.0,038.6,031.5,27.2,0000.0,0004.92,0002.44,0001.88
2023-06-30 08:55:00,SystemResetWarning,0835.0,5.00,000.00,030.0,028.7,000.0,038.6,031.6,27.2,0000.0,0004.99,0002.46,0001.89
2023-06-30 08:56:00,SystemResetWarning,0835.0,5.00,000.00,030.0,028.7,000.0,038.6,031.6,27.2,0000.0,0005.06,0002.49,0001.89
2023-06-30 08:57:00,SystemResetWarning,0835.0,5.00,000.00,030.0,028.7,000.0,038.6,031.6,27.3,0000.0,0004.94,0002.44,0001.88
2023-06-30 08:58:00,SystemResetWarning,0834.9,5.00,000.00,030.0,028.7,000.0,038.6,031.6,27.3,0000.0,0005.19,0002.54,0001.87
2023-06-30 08:59:00,SystemResetWarning,0834.9,5.00,000.00,030.0,028.7,000.0,038.6,031.6,27.3,0000.0,0005.30,0002.59,0001.88
